RH
27 17 54 73 86 93 98 97 97 88 83 83 74 50 34 23 18 21 31 35 37 41 50 47 46 36 34 35 37 41 42 41 45 47 51 59 67 61 55 53 58 52 49 49 59 66 64 70 78
24 34 68 79 88 95 89 87 96 80 75 85 68 42 25 19 18 22 28 36 31 42 50 46 40 32 32 33 39 48 44 39 36 41 44 39 35 74 73 68 54 62 70 64 71 50 74 91 94
20 64 65 83 91 97 89 95 99 82 85 88 69 46 23 18 18 21 20 25 36 44 43 44 44 40 32 35 39 46 49 55 65 70 86 71 57 81 75 35 62 80 74 74 52 74 92 96 96
57 65 64 70 86 100 95 94 86 80 77 76 70 53 26 18 18 19 21 19 24 40 38 38 47 35 38 41 45 46 54 63 66 69 74 65 68 57 54 48 76 82 56 53 80 93 89 96 86
66 52 64 77 84 96 89 95 75 85 86 71 66 53 29 18 18 17 20 21 23 38 38 40 44 37 35 45 38 57 66 62 60 65 58 58 57 52 61 73 70 49 67 79 93 73 92 94 67
57 47 69 80 91 94 91 99 96 96 89 81 75 62 33 19 18 16 22 21 26 36 43 39 37 32 38 34 47 60 55 54 52 44 40 38 38 40 34 38 39 47 66 73 84 86 80 78 70
49 43 64 87 76 87 92 97 98 95 97 94 79 64 32 20 19 17 23 21 26 28 32 28 28 30 40 35 48 59 50 42 39 45 43 34 39 36 30 30 39 50 51 63 72 77 75 71 60
44 46 58 64 75 79 89 97 99 92 98 98 78 57 33 20 20 19 20 24 23 28 31 35 27 29 38 35 40 54 48 42 42 38 34 42 37 37 35 35 40 42 47 51 43 51 62 67 46
47 50 55 68 69 81 83 99 96 99 95 87 76 70 24 20 18 20 17 23 25 26 30 35 23 25 39 25 30 39 56 54 52 32 30 33 40 40 35 33 39 48 44 46 36 29 30 43 51
50 51 50 65 68 86 100 97 97 96 92 85 88 67 34 21 16 18 17 21 20 22 26 23 15 23 38 19 22 34 33 38 42 39 37 40 46 45 46 59 49 43 38 33 31 22 22 29 31
47 55 51 53 75 72 91 98 99 93 88 87 79 61 46 23 14 15 20 15 18 22 23 22 14 22 37 35 20 23 31 31 28 31 33 37 43 50 54 58 50 44 51 32 31 23 20 23 25
45 45 55 67 84 76 84 90 92 97 97 80 72 38 39 24 15 14 21 15 17 23 22 22 15 21 24 27 20 13 42 55 39 30 42 38 35 36 49 52 47 32 30 30 25 23 21 22 28
40 42 56 64 86 85 74 64 94 89 97 95 73 56 36 24 17 12 17 16 15 24 23 22 15 12 18 34 35 26 35 37 38 43 38 40 25 23 26 27 21 24 26 27 24 25 26 27 27
38 38 50 47 48 77 53 78 88 98 87 99 78 71 47 28 19 12 15 17 14 23 27 24 16 9 13 23 27 32 39 64 50 46 38 44 37 26 25 19 12 11 21 28 34 31 28 26 16
33 34 35 36 40 43 65 84 82 89 86 93 87 76 58 32 24 13 12 13 12 18 28 24 16 11 16 11 16 24 48 51 39 46 38 22 23 22 19 18 16 9 9 26 36 37 27 15 11
24 24 24 28 37 48 55 83 84 76 81 88 88 85 59 40 25 15 12 13 12 18 28 22 18 19 31 13 22 28 34 42 40 43 28 35 34 25 16 11 12 9 8 13 26 32 15 8 9
20 18 20 26 39 57 64 82 89 74 84 85 99 93 53 30 29 19 12 10 10 20 27 18 19 35 20 22 29 34 27 31 38 40 45 54 55 33 10 8 7 8 8 9 16 19 13 7 5
21 21 27 32 41 76 74 78 87 84 99 97 95 78 43 24 26 26 13 13 9 16 22 14 14 26 23 29 28 27 22 28 26 34 40 42 54 54 14 6 6 7 10 11 12 14 12 7 7
20 21 30 30 38 49 58 81 82 86 86 89 81 44 34 19 22 24 15 14 9 14 14 8 21 24 23 23 20 21 18 19 29 30 35 38 38 36 31 11 6 9 13 14 13 13 14 7 8
7 16 25 28 30 43 62 87 79 88 85 89 68 72 48 16 19 25 17 14 10 8 9 8 27 26 27 39 32 23 18 16 17 44 51 42 40 31 14 8 12 14 14 14 14 14 15 11 7
4 7 17 23 23 41 84 84 82 85 94 95 86 81 43 25 22 22 16 13 14 9 11 10 28 33 38 40 34 25 20 17 21 44 52 44 57 25 19 16 18 16 15 15 14 16 16 16 9
5 4 7 13 18 28 44 54 78 83 76 84 92 72 53 31 27 20 16 12 13 12 10 20 21 38 38 36 28 23 20 20 54 57 36 33 38 29 26 22 22 19 15 14 14 14 17 18 16
14 8 5 5 8 17 39 42 66 94 93 100 100 97 83 40 28 24 20 15 11 13 9 13 16 30 33 26 25 25 22 27 58 47 36 37 24 23 25 34 22 21 15 14 12 12 16 18 16
21 17 10 6 4 11 26 36 41 51 86 78 77 84 82 92 34 20 19 18 11 10 10 11 17 22 31 29 28 27 28 32 42 41 22 13 34 26 24 28 20 20 18 17 14 9 12 14 14
19 21 16 13 8 9 11 40 42 42 91 83 84 81 77 68 46 22 26 24 16 13 12 11 14 20 29 35 30 31 29 32 38 39 18 13 26 31 27 27 40 31 18 14 13 11 8 12 18
13 21 19 14 11 12 9 15 26 36 83 97 98 76 62 71 59 51 43 28 20 16 16 17 13 19 28 38 32 32 28 31 35 39 28 28 32 28 26 30 37 41 31 23 18 6 8 9 12
12 12 19 20 16 19 20 19 19 20 33 58 86 78 82 84 66 25 24 22 21 18 18 23 19 16 23 33 31 28 31 27 32 35 34 35 36 35 22 26 26 25 36 26 18 5 17 19 12
15 14 17 15 16 21 21 21 19 21 23 98 95 76 98 88 80 72 27 20 22 21 18 19 17 15 19 23 27 22 23 22 26 31 37 35 29 28 28 31 19 31 30 19 27 18 4 5 5
14 16 16 24 16 15 13 12 14 18 27 45 92 75 85 97 98 99 78 22 21 24 16 17 17 9 14 25 21 17 18 16 19 25 33 35 27 25 38 42 26 24 39 25 23 25 12 5 4
15 16 15 19 21 14 12 11 10 9 14 30 94 91 76 70 98 97 96 58 15 34 29 31 15 11 8 15 27 25 15 15 15 20 26 32 32 26 36 33 18 24 34 20 30 22 11 22 11
Wind_Speed
1 2 3 5 5 13 9 7 6 18 15 12 10 11 13 13 14 15 13 11 14 18 16 16 15 16 17 16 14 12 9 8 7 7 7 6 6 6 5 5 3 3 4 4 5 5 5 6 11
2 4 4 7 9 16 4 8 21 19 17 13 12 11 13 15 14 14 16 13 15 16 17 17 16 15 15 15 13 12 10 10 9 7 6 7 6 5 6 4 4 5 6 6 6 6 5 6 12
5 4 4 9 10 11 4 18 18 19 19 18 13 10 14 15 14 15 16 17 16 16 17 16 15 14 15 15 14 13 11 9 9 6 6 6 7 8 7 6 7 8 8 9 9 8 9 18 20
4 3 6 10 16 7 1 17 20 22 19 18 16 13 15 13 13 15 17 18 18 17 17 15 14 15 16 16 15 13 14 13 11 9 9 9 9 9 8 9 11 12 11 12 12 13 15 17 18
4 4 10 13 14 1 16 21 20 17 21 19 15 14 15 13 13 13 15 18 19 19 17 16 16 16 16 15 15 16 18 17 17 17 16 17 16 14 12 14 15 15 15 16 15 18 15 15 14
2 5 10 14 20 22 14 15 14 16 27 24 17 15 15 12 14 13 13 17 17 18 17 17 18 17 17 16 17 19 21 22 23 23 23 22 21 21 20 19 18 17 18 18 18 17 16 14 13
2 5 9 14 13 14 9 13 15 16 16 17 15 16 15 13 13 12 14 15 16 17 15 17 18 18 18 18 18 20 21 23 24 24 24 24 23 22 20 19 19 18 18 18 17 15 15 14 14
2 5 5 7 6 13 7 18 18 13 9 14 14 16 16 15 15 13 14 14 15 16 15 16 17 18 19 17 18 19 21 22 23 22 21 21 22 21 19 19 18 19 17 17 17 16 15 14 14
3 3 3 7 6 7 10 6 15 12 9 18 15 11 13 16 17 14 16 15 15 15 13 14 16 18 19 18 18 20 20 20 18 20 19 18 19 20 19 19 18 17 17 17 16 15 14 13 12
6 4 2 4 4 3 4 7 8 10 20 21 17 13 9 15 16 15 16 16 17 16 14 14 15 17 18 18 18 19 20 19 16 17 18 16 17 17 17 18 16 15 16 16 16 15 13 12 12
11 7 4 1 4 4 5 10 4 19 21 21 18 16 11 13 15 13 13 12 16 18 15 15 15 16 16 16 18 19 18 19 17 16 18 18 17 17 16 14 15 14 13 16 14 14 15 14 13
11 8 6 5 7 4 3 1 7 13 15 18 14 10 15 13 15 16 16 17 17 18 17 16 16 16 17 17 17 18 20 16 17 17 18 17 16 16 17 14 13 14 14 14 14 15 15 15 14
16 10 9 9 5 2 4 7 3 15 9 15 15 11 8 11 12 12 13 15 17 18 17 16 17 16 16 17 16 15 16 14 18 18 15 15 14 13 14 13 14 15 15 14 16 16 16 15 15
18 15 12 12 10 10 6 4 6 12 7 9 17 15 9 10 15 15 15 15 17 19 17 17 17 16 15 16 17 14 16 15 12 15 16 14 13 12 11 12 12 15 15 14 16 16 16 16 15
19 19 18 15 12 10 5 8 10 7 8 14 15 14 10 11 14 14 16 18 17 19 19 18 18 15 14 13 15 15 14 14 12 12 12 12 11 11 9 11 10 11 14 15 15 14 15 16 16
20 21 19 20 14 11 8 12 8 13 13 15 19 15 12 11 12 14 15 17 19 20 20 19 18 15 14 13 12 15 12 12 14 11 11 11 10 8 8 9 9 10 11 12 14 14 14 14 15
18 18 19 21 18 14 11 10 10 7 16 15 22 18 11 9 11 12 15 19 19 21 21 21 20 15 15 14 14 13 13 13 12 11 11 11 11 8 8 8 9 10 11 11 12 13 13 14 14
19 18 17 19 20 17 15 12 12 9 20 27 24 17 12 12 15 15 14 16 18 21 21 22 20 16 16 14 13 13 13 11 10 9 9 10 7 7 9 9 9 9 11 11 12 11 12 13 14
28 24 21 22 21 21 19 16 12 15 16 20 17 13 12 15 14 16 16 18 19 22 23 21 21 19 18 14 11 10 10 9 9 8 8 10 7 7 9 10 10 10 10 11 11 12 12 13 14
31 30 28 25 23 22 22 19 15 11 16 16 16 14 11 11 11 14 16 18 21 24 24 23 20 21 16 12 10 9 9 8 10 8 7 8 10 9 10 12 12 9 9 9 9 10 11 11 12
31 32 33 30 25 22 21 19 18 14 11 16 17 14 13 13 13 14 16 19 22 24 25 25 23 20 15 13 13 13 11 10 10 10 9 9 10 11 11 12 10 10 9 8 8 10 10 10 10
29 30 36 35 29 24 22 20 19 16 14 11 19 21 17 17 16 15 19 18 21 24 26 24 22 18 16 14 14 13 11 9 10 12 12 12 12 12 11 12 11 11 9 9 7 8 10 10 12
27 31 35 36 31 26 23 21 22 19 18 17 19 25 19 20 20 17 16 20 23 23 26 26 23 19 16 16 14 12 11 11 11 13 15 14 14 13 12 11 10 10 10 8 7 9 12 12 12
33 31 32 32 31 29 26 24 24 25 25 24 24 22 25 21 24 22 23 24 20 21 22 26 23 22 19 16 14 12 13 14 14 15 16 16 15 13 12 10 9 8 9 9 7 8 13 14 13
36 34 33 33 31 31 28 27 25 24 26 23 23 23 21 25 24 22 17 16 16 16 17 24 26 23 22 19 17 15 15 15 14 16 16 16 15 15 14 11 10 9 9 9 9 8 10 14 14
36 36 35 34 29 26 26 29 28 25 26 31 27 18 12 21 23 22 21 20 20 20 18 22 27 26 24 23 20 18 17 17 16 15 16 15 15 15 14 11 8 8 8 8 8 10 10 13 14
35 37 36 35 31 27 29 28 28 27 27 23 22 17 15 21 26 25 23 21 22 23 22 25 27 29 27 25 22 20 19 19 19 19 18 17 17 16 14 13 10 8 7 8 7 8 10 11 14
36 34 36 35 33 35 34 31 30 26 21 27 25 18 17 23 21 20 22 23 24 26 27 28 29 30 32 28 27 26 25 21 19 19 20 19 18 17 15 12 11 10 8 8 7 6 9 11 13
39 38 37 35 33 34 32 33 31 29 26 26 28 25 20 23 20 23 25 26 28 29 29 30 29 29 34 32 28 26 27 24 21 20 20 20 18 18 17 14 12 11 10 10 9 7 7 10 12
40 39 39 38 37 36 33 30 28 28 28 28 31 31 26 23 27 18 19 26 30 30 28 27 30 30 31 35 34 30 28 26 24 22 23 22 21 21 19 17 14 12 11 11 11 9 7 7 9
Wind_Direction
275 86 63 18 339 322 344 301 113 135 136 139 117 98 99 102 108 112 105 112 110 108 108 100 100 98 99 100 100 96 96 86 75 68 70 72 76 93 91 89 103 118 106 91 94 102 113 136 149
185 116 33 358 344 353 30 136 142 136 133 127 115 97 103 105 109 118 112 114 111 110 107 102 99 94 94 91 85 78 65 55 56 61 71 75 89 104 114 108 104 86 81 87 80 87 102 174 192
161 102 13 9 5 352 124 166 150 141 138 135 112 104 101 108 119 120 118 118 118 114 108 103 98 98 94 92 87 80 73 61 52 51 73 93 108 106 111 104 99 95 96 89 93 100 94 79 107
150 98 17 359 336 357 348 147 145 149 145 138 129 114 101 107 121 124 123 119 122 117 114 112 106 98 95 88 81 68 65 68 68 77 89 106 115 118 113 108 110 113 98 101 99 90 95 98 95
136 65 33 1 359 229 143 152 148 148 143 138 124 111 101 112 117 120 127 124 125 121 121 116 111 104 98 89 80 79 79 76 83 89 97 106 107 102 107 121 113 112 112 106 106 100 100 90 90
124 60 45 33 47 140 135 151 144 148 156 138 126 109 101 110 114 123 125 125 124 120 123 121 116 108 99 87 84 88 85 86 86 90 93 96 98 99 99 107 110 111 109 106 106 105 105 101 96
173 63 58 58 79 90 142 174 117 131 149 142 127 114 112 118 115 125 123 127 124 121 124 123 119 111 100 93 90 94 92 94 92 88 93 94 96 95 96 95 98 104 109 107 106 107 103 103 96
146 86 78 84 75 97 129 160 136 117 123 144 136 133 130 129 125 130 124 128 127 126 127 125 119 111 102 98 95 99 100 99 97 92 93 94 93 93 93 93 93 93 96 96 94 98 100 98 101
188 118 52 94 74 112 128 184 178 154 177 152 140 138 143 139 133 138 134 134 134 130 131 129 123 115 111 104 103 103 106 103 102 102 100 97 94 91 90 92 89 86 85 84 84 85 92 95 94
209 191 208 94 88 118 151 149 104 163 154 150 141 140 160 144 141 143 143 141 143 137 139 133 130 121 117 111 106 104 103 104 102 100 98 95 94 91 89 90 93 88 84 80 81 81 84 92 93
202 210 203 58 206 154 109 86 82 146 153 154 163 145 156 150 139 135 138 136 148 142 144 140 140 129 123 117 111 109 104 98 94 92 95 96 93 92 92 91 88 82 92 82 86 86 87 89 90
214 208 214 145 133 91 19 337 140 143 167 166 169 141 156 163 158 154 157 152 153 149 147 148 149 137 129 127 121 116 119 95 106 102 99 93 95 95 98 98 91 88 90 93 90 88 87 84 86
212 211 207 193 182 223 271 280 196 183 175 174 167 153 149 166 155 147 158 156 155 155 148 155 154 145 138 131 129 122 119 105 111 103 98 94 95 95 98 95 91 93 91 91 92 92 90 85 81
207 215 214 218 213 234 258 254 228 160 203 221 174 158 155 172 166 162 167 162 161 160 153 159 161 153 146 139 131 126 125 113 114 105 108 96 100 98 102 95 89 95 98 95 95 94 92 87 84
210 215 222 226 217 236 215 242 235 228 194 172 178 170 162 177 189 176 178 168 165 163 158 162 165 159 149 150 140 137 132 117 123 119 112 104 102 101 100 101 100 87 95 99 99 93 88 92 93
215 220 217 221 216 220 216 239 250 237 218 204 179 171 163 187 191 181 178 178 165 165 165 163 166 164 157 158 149 139 135 132 133 122 123 111 108 113 114 117 120 103 96 102 102 101 95 93 95
208 211 212 213 208 205 212 239 224 264 200 202 202 176 179 186 188 194 185 183 169 169 171 164 167 162 159 157 155 144 138 139 137 132 130 121 116 116 134 133 124 121 116 116 113 108 105 104 101
206 205 210 213 206 199 208 227 200 168 173 168 170 174 174 194 183 185 192 185 178 173 176 168 168 164 161 164 163 156 145 150 142 142 137 125 128 126 151 151 136 134 122 122 122 115 110 105 103
212 205 206 212 207 211 207 223 229 195 170 175 170 178 196 199 187 181 191 190 185 176 176 176 171 170 167 162 163 162 150 157 155 147 134 124 131 133 142 154 146 139 125 120 120 121 111 111 110
211 209 211 214 209 209 209 209 224 216 202 195 191 193 205 220 195 183 193 196 188 182 178 177 179 178 175 171 160 170 170 180 178 146 138 141 139 152 147 148 145 139 127 125 125 119 116 116 122
207 208 212 213 210 207 205 213 214 205 215 202 207 217 195 210 203 182 190 199 195 186 183 184 187 182 180 182 175 180 184 187 167 150 151 165 153 163 159 151 146 138 137 139 135 129 125 127 134
209 210 214 216 208 203 205 207 202 208 220 219 207 198 201 193 204 189 192 192 199 191 189 190 192 191 178 186 187 195 187 180 166 160 161 158 159 169 160 155 149 144 140 140 133 138 141 146 146
207 210 216 221 213 202 198 200 198 198 209 196 207 193 200 197 204 188 198 198 198 194 193 193 194 195 190 190 198 191 181 177 182 171 163 160 164 170 164 160 149 143 144 140 141 147 155 161 157
210 213 218 223 220 209 199 197 199 204 215 213 216 202 196 201 208 195 196 206 200 195 199 199 200 195 201 194 198 194 182 187 185 176 168 166 169 169 163 159 156 149 151 154 159 152 161 161 166
211 213 217 221 220 214 204 201 204 206 214 223 221 219 199 204 202 205 210 205 208 199 195 201 201 201 204 206 200 194 193 191 191 177 173 170 170 174 164 164 172 171 165 159 161 162 164 169 169
212 216 221 225 224 219 213 209 208 210 214 220 221 219 228 217 220 206 199 201 201 202 199 200 203 202 205 211 207 199 199 199 190 188 176 175 178 179 167 165 180 184 180 178 171 165 167 173 174
209 213 218 221 220 222 219 215 211 214 217 227 229 200 196 205 208 207 194 196 205 203 201 198 201 203 206 213 214 206 205 207 196 192 187 181 184 183 180 175 179 188 196 187 180 170 168 172 180
210 211 214 220 220 219 221 221 220 219 213 190 195 187 186 196 212 215 205 196 201 204 206 206 203 202 205 208 212 207 206 212 207 201 197 192 189 190 193 194 191 188 196 193 187 178 176 181 183
209 211 212 219 222 224 224 228 226 220 217 211 203 201 188 194 189 210 214 212 203 206 212 210 211 207 207 209 211 211 208 207 209 208 208 201 198 200 203 207 212 204 199 201 199 200 188 180 190
210 211 214 219 223 226 224 224 227 227 225 214 210 210 207 206 203 211 217 220 217 209 211 216 217 212 212 215 217 212 212 211 207 210 214 212 208 209 212 210 213 215 214 208 212 208 206 197 181